DW8452 Acharnes GR current weather conditions

sailwx.info

Wind from 049 at 0 knots gusting 3

Air temperature 15.6° C
Dewpoint 8.5° C

Last reported at 2018-Apr-20 00:10 UTC.
Time now 2018-Apr-20 01:11 UTC

Location: N 38°06' E 023°44'.
View on Google Maps.

See reports from other nearby stations

  
Tides and Currents Weather Stations Pressure Air Temp Water Temp Dewpoint Dewpoint Depression Visibility Wind Speed Wind Dir Waves Ship Positions
date/time (UTC)wind fromknots sea level pressurealtimeterstation pressurevisibilityair tempwater tempwave heightnotes
2018-Apr-20 00:10 049 0 gusting 3 15.6
2018-Apr-20 00:05 053 1 gusting 3 15.6
2018-Apr-20 00:00 050 1 gusting 3 15.6
2018-Apr-19 23:55 040 0 gusting 2 15.6
2018-Apr-19 23:50 045 0 gusting 3 15.6
2018-Apr-19 23:45 051 0 gusting 3 15.6
2018-Apr-19 23:40 045 15.6
2018-Apr-19 23:35 045 15.6
2018-Apr-19 23:30 011 15.6
2018-Apr-19 23:25 359 15.6
2018-Apr-19 23:20 352 15.6
2018-Apr-19 23:15 002 0 gusting 1 15.6
2018-Apr-19 23:10 005 15.6
2018-Apr-19 23:05 352 15.6
2018-Apr-19 23:00 344 0 gusting 3 15.6
2018-Apr-19 22:55 337 0 gusting 3 15.6
2018-Apr-19 22:50 349 0 gusting 2 15.6
2018-Apr-19 22:45 348 0 gusting 2 15.6
2018-Apr-19 22:40 356 15.6
2018-Apr-19 22:35 336 0 gusting 3 15.6
2018-Apr-19 22:30 355 0 gusting 3 15.6
2018-Apr-19 22:25 087 15.6
2018-Apr-19 22:20 036 15.6
2018-Apr-19 22:15 034 0 gusting 2 15.6
2018-Apr-19 22:10 046 0 gusting 1 15.6
2018-Apr-19 22:05 042 0 gusting 1 15.6
2018-Apr-19 22:00 035 16.1
2018-Apr-19 21:55 024 16.1
2018-Apr-19 21:50 008 0 gusting 2 16.1
2018-Apr-19 21:45 354 16.1
2018-Apr-19 21:40 340 16.1
2018-Apr-19 21:35 019 0 gusting 3 16.1
2018-Apr-19 21:30 043 0 gusting 2 16.7
2018-Apr-19 21:25 348 0 gusting 2 16.7
2018-Apr-19 21:20 036 16.7
2018-Apr-19 21:15 032 16.7
2018-Apr-19 21:05 011 0 gusting 3 17.2
2018-Apr-19 21:00 077 17.2
2018-Apr-19 20:55 155 17.2
2018-Apr-19 20:50 165 17.8
2018-Apr-19 20:45 340 17.8
2018-Apr-19 20:40 326 17.8
2018-Apr-19 20:35 155 0 gusting 3 17.8
2018-Apr-19 20:30 102 0 gusting 5 17.8
2018-Apr-19 20:25 054 0 gusting 5 17.8
2018-Apr-19 20:20 179 1 gusting 6 17.8
2018-Apr-19 20:15 155 0 gusting 6 17.8
2018-Apr-19 20:05 149 0 gusting 5 18.3
2018-Apr-19 20:00 133 1 gusting 5 18.3
2018-Apr-19 19:55 125 0 gusting 4 18.3
2018-Apr-19 19:50 146 1 gusting 6 18.3
2018-Apr-19 19:45 131 1 gusting 6 18.3
2018-Apr-19 19:40 124 1 gusting 6 18.3
2018-Apr-19 19:35 156 1 gusting 7 18.3
2018-Apr-19 19:30 188 1 gusting 8 18.3
2018-Apr-19 19:25 170 2 gusting 8 18.9
2018-Apr-19 19:20 130 2 gusting 6 18.3
2018-Apr-19 19:15 134 2 gusting 6 18.3
2018-Apr-19 19:10 142 2 gusting 6 18.3
2018-Apr-19 19:05 103 1 gusting 6 18.9
2018-Apr-19 19:00 104 2 gusting 6 18.9
2018-Apr-19 18:55 111 2 gusting 6 18.9
2018-Apr-19 18:50 132 1 gusting 6 18.9
2018-Apr-19 18:45 136 0 gusting 6 18.9
2018-Apr-19 18:35 056 0 gusting 3 19.4
2018-Apr-19 18:30 038 0 gusting 3 19.4
2018-Apr-19 18:24 001 0 gusting 4 19.4
2018-Apr-19 18:20 348 0 gusting 4 18.9
2018-Apr-19 18:15 174 0 gusting 3 19.4
2018-Apr-19 18:10 143 0 gusting 3 19.4
2018-Apr-19 18:05 144 0 gusting 3 19.4
2018-Apr-19 18:00 136 0 gusting 3 19.4
2018-Apr-19 17:55 089 1 gusting 5 19.4
2018-Apr-19 17:50 108 0 gusting 5 19.4
2018-Apr-19 17:45 189 0 gusting 3 19.4
2018-Apr-19 17:40 227 0 gusting 3 20.0
2018-Apr-19 17:35 232 0 gusting 3 20.0
2018-Apr-19 17:30 292 0 gusting 3 20.0
2018-Apr-19 17:25 339 0 gusting 3 20.0
2018-Apr-19 17:20 090 0 gusting 3 20.6
2018-Apr-19 17:15 082 1 gusting 7 20.6
2018-Apr-19 17:10 064 1 gusting 7 20.6
2018-Apr-19 17:05 043 1 gusting 5 20.6
2018-Apr-19 17:00 051 1 gusting 6 20.6
2018-Apr-19 16:55 053 1 gusting 6 20.6
2018-Apr-19 16:50 077 1 gusting 4 21.1
2018-Apr-19 16:45 039 1 gusting 6 21.1
2018-Apr-19 16:40 026 1 gusting 6 21.1
2018-Apr-19 16:35 053 1 gusting 6 21.1
2018-Apr-19 16:30 057 1 gusting 6 21.1
2018-Apr-19 16:25 010 2 gusting 6 21.7
2018-Apr-19 16:20 348 1 gusting 6 21.7
2018-Apr-19 16:15 355 0 gusting 6 21.1
2018-Apr-19 16:10 006 1 gusting 5 21.7
2018-Apr-19 16:05 032 2 gusting 6 21.7
2018-Apr-19 16:00 007 2 gusting 6 21.7
2018-Apr-19 15:55 326 2 gusting 10 21.1
2018-Apr-19 15:45 096 1 gusting 6 21.7
2018-Apr-19 15:40 121 1 gusting 6 21.7
2018-Apr-19 15:35 345 3 gusting 8 21.7
2018-Apr-19 15:30 340 2 gusting 8 21.7
2018-Apr-19 15:25 337 3 gusting 9 21.7
2018-Apr-19 15:20 334 4 gusting 13 21.7
2018-Apr-19 15:15 343 3 gusting 13 21.7
2018-Apr-19 15:10 017 2 gusting 6 21.7
2018-Apr-19 15:05 033 2 gusting 8 21.7
2018-Apr-19 15:00 031 3 gusting 8 22.2
2018-Apr-19 14:55 034 3 gusting 8 22.2
2018-Apr-19 14:50 038 3 gusting 10 22.2
2018-Apr-19 14:45 035 4 gusting 10 22.2
2018-Apr-19 14:40 037 4 gusting 10 22.2
2018-Apr-19 14:35 019 5 gusting 11 22.2
2018-Apr-19 14:30 007 4 gusting 11 22.8
2018-Apr-19 14:25 352 3 gusting 11 22.8
2018-Apr-19 14:20 355 3 gusting 9 23.3
2018-Apr-19 14:15 358 3 gusting 9 22.8
2018-Apr-19 14:10 357 5 gusting 18 22.8
2018-Apr-19 14:05 030 6 gusting 18 22.2
2018-Apr-19 14:00 049 6 gusting 14 22.2
2018-Apr-19 13:55 041 6 gusting 14 22.8
2018-Apr-19 13:50 025 6 gusting 16 22.8
2018-Apr-19 13:45 012 6 gusting 16 22.8
2018-Apr-19 13:40 029 5 gusting 15 23.3
2018-Apr-19 13:35 053 4 gusting 15 22.8
2018-Apr-19 13:30 007 5 gusting 13 22.8
2018-Apr-19 13:25 021 6 gusting 16 23.3
2018-Apr-19 13:20 050 6 gusting 16 23.3
2018-Apr-19 13:15 050 5 gusting 15 23.3
2018-Apr-19 13:10 035 4 gusting 15 23.3
2018-Apr-19 13:05 020 5 gusting 18 23.3
2018-Apr-19 13:00 015 6 gusting 18 23.3
2018-Apr-19 12:55 018 5 gusting 13 23.9
2018-Apr-19 12:50 019 6 gusting 13 23.9
2018-Apr-19 12:45 042 5 gusting 12 24.4
2018-Apr-19 12:40 048 4 gusting 9 23.9
2018-Apr-19 12:35 027 4 gusting 13 23.9
2018-Apr-19 12:30 026 3 gusting 13 23.9
2018-Apr-19 12:25 041 4 gusting 13 23.3
2018-Apr-19 12:20 048 4 gusting 13 23.9
2018-Apr-19 12:15 035 3 gusting 13 23.9
2018-Apr-19 12:10 009 2 gusting 6 23.9
2018-Apr-19 12:05 002 2 gusting 9 23.9
2018-Apr-19 12:00 018 3 gusting 16 23.3
2018-Apr-19 11:55 032 5 gusting 16 23.3
2018-Apr-19 11:50 039 4 gusting 11 23.3
2018-Apr-19 11:45 026 5 gusting 11 23.3
2018-Apr-19 11:40 033 6 gusting 15 23.3
2018-Apr-19 11:35 028 5 gusting 15 23.3
2018-Apr-19 11:30 030 5 gusting 13 23.9
2018-Apr-19 11:25 044 5 gusting 13 23.3
2018-Apr-19 11:20 345 5 gusting 13 23.3
2018-Apr-19 11:15 345 4 gusting 13 23.9
2018-Apr-19 11:10 347 5 gusting 13 23.9
2018-Apr-19 11:05 352 5 gusting 12 23.9
2018-Apr-19 11:00 027 5 gusting 13 23.9
2018-Apr-19 10:55 019 4 gusting 13 23.3
2018-Apr-19 10:50 357 4 gusting 13 23.3
2018-Apr-19 10:45 007 5 gusting 13 23.9
2018-Apr-19 10:40 025 5 gusting 13 23.3
2018-Apr-19 10:35 019 4 gusting 13 23.3
2018-Apr-19 10:30 023 5 gusting 13 23.3
2018-Apr-19 10:25 011 5 gusting 13 23.3
2018-Apr-19 10:20 012 4 gusting 10 23.3
2018-Apr-19 10:15 017 4 gusting 11 23.3
2018-Apr-19 10:10 020 6 gusting 19 23.3
2018-Apr-19 10:05 004 5 gusting 19 23.3
2018-Apr-19 10:00 034 5 gusting 17 23.3
2018-Apr-19 09:55 058 6 gusting 17 22.8
2018-Apr-19 09:50 030 6 gusting 17 22.8
2018-Apr-19 09:45 028 4 gusting 10 22.8
2018-Apr-19 09:40 032 4 gusting 11 22.8
2018-Apr-19 09:35 028 5 gusting 13 22.8
2018-Apr-19 09:30 035 5 gusting 13 22.8
2018-Apr-19 09:25 038 5 gusting 13 22.8
2018-Apr-19 09:20 044 5 gusting 11 22.8
2018-Apr-19 09:15 047 5 gusting 14 22.8
2018-Apr-19 09:10 012 4 gusting 14 22.8
2018-Apr-19 09:05 349 4 gusting 13 22.8
2018-Apr-19 09:00 032 5 gusting 13 22.8
2018-Apr-19 08:55 044 5 gusting 13 22.2
2018-Apr-19 08:50 029 5 gusting 14 22.2
2018-Apr-19 08:45 051 6 gusting 14 22.2
2018-Apr-19 08:40 052 6 gusting 19 21.7
2018-Apr-19 08:35 029 7 gusting 19 21.7
2018-Apr-19 08:30 027 8 gusting 19 21.1
2018-Apr-19 08:25 036 9 gusting 24 21.1
2018-Apr-19 08:20 020 8 gusting 24 21.1
2018-Apr-19 08:15 016 9 gusting 24 21.1
2018-Apr-19 08:10 028 9 gusting 24 21.1
2018-Apr-19 08:05 008 8 gusting 20 21.7
2018-Apr-19 08:00 011 7 gusting 18 21.1
2018-Apr-19 07:55 030 7 gusting 19 21.1
2018-Apr-19 07:50 025 7 gusting 19 21.1
2018-Apr-19 07:45 009 6 gusting 16 21.1
2018-Apr-19 07:40 007 6 gusting 16 20.6
2018-Apr-19 07:35 022 7 gusting 19 20.6
2018-Apr-19 07:30 024 9 gusting 20 20.6
2018-Apr-19 07:25 028 8 gusting 20 20.6
2018-Apr-19 07:20 040 7 gusting 20 20.6
2018-Apr-19 07:15 041 7 gusting 26 20.6
2018-Apr-19 07:10 035 6 gusting 26 20.6
2018-Apr-19 07:05 021 6 gusting 16 20.6
2018-Apr-19 07:00 033 7 gusting 26 20.6
2018-Apr-19 06:55 038 9 gusting 26 20.6
2018-Apr-19 06:50 032 6 gusting 23 20.6
2018-Apr-19 06:45 020 6 gusting 22 20.6
2018-Apr-19 06:40 004 7 gusting 22 20.6
2018-Apr-19 06:35 344 7 gusting 22 20.6
2018-Apr-19 06:30 351 7 gusting 20 20.0
2018-Apr-19 06:25 033 8 gusting 23 20.0
2018-Apr-19 06:20 030 10 gusting 26 20.0
2018-Apr-19 06:15 002 9 gusting 26 20.0
2018-Apr-19 06:10 009 6 gusting 20 20.0
2018-Apr-19 06:05 015 6 gusting 18 20.0
2018-Apr-19 06:00 013 8 gusting 25 20.0
2018-Apr-19 05:55 009 8 gusting 25 20.0
2018-Apr-19 05:50 037 7 gusting 19 20.0
2018-Apr-19 05:45 051 8 gusting 21 20.0
2018-Apr-19 05:40 039 8 gusting 21 19.4
2018-Apr-19 05:35 036 8 gusting 22 19.4
2018-Apr-19 05:30 001 8 gusting 25 19.4
2018-Apr-19 05:25 011 9 gusting 25 19.4
2018-Apr-19 05:20 029 9 gusting 24 19.4
2018-Apr-19 05:15 016 8 gusting 20 19.4
2018-Apr-19 05:10 033 7 gusting 19 19.4
2018-Apr-19 05:05 033 6 gusting 19 19.4
2018-Apr-19 05:00 005 5 gusting 18 19.4
2018-Apr-19 04:55 017 5 gusting 13 19.4
2018-Apr-19 04:50 014 6 gusting 19 19.4
2018-Apr-19 04:45 013 8 gusting 24 19.4
2018-Apr-19 04:40 020 7 gusting 24 19.4
2018-Apr-19 04:35 016 6 gusting 19 19.4
2018-Apr-19 04:30 021 6 gusting 17 19.4
2018-Apr-19 04:25 028 6 gusting 17 19.4
2018-Apr-19 04:20 014 7 gusting 19 18.9
2018-Apr-19 04:15 005 7 gusting 19 19.4
2018-Apr-19 04:10 024 6 gusting 16 19.4
2018-Apr-19 04:05 032 6 gusting 14 18.9
2018-Apr-19 04:00 007 5 gusting 14 18.9
2018-Apr-19 03:55 357 4 gusting 15 19.4
2018-Apr-19 03:50 027 5 gusting 15 18.9
2018-Apr-19 03:45 030 3 gusting 14 18.9
2018-Apr-19 03:40 006 3 gusting 13 18.9
2018-Apr-19 03:35 009 5 gusting 13 18.9
2018-Apr-19 03:30 350 4 gusting 13 19.4
2018-Apr-19 03:25 333 3 gusting 13 19.4
2018-Apr-19 03:20 354 2 gusting 8 19.4
2018-Apr-19 03:15 349 2 gusting 9 18.9
2018-Apr-19 03:10 358 3 gusting 10 19.4
2018-Apr-19 03:05 348 4 gusting 13 19.4
2018-Apr-19 03:00 348 4 gusting 13 19.4
2018-Apr-19 02:55 012 2 gusting 13 19.4
2018-Apr-19 02:50 009 3 gusting 13 18.9
2018-Apr-19 02:45 353 5 gusting 18 19.4
2018-Apr-19 02:40 005 4 gusting 18 19.4
2018-Apr-19 02:35 025 5 gusting 14 19.4
2018-Apr-19 02:30 013 6 gusting 15 19.4
2018-Apr-19 02:25 338 6 gusting 21 19.4
2018-Apr-19 02:20 343 4 gusting 21 18.9
2018-Apr-19 02:15 013 2 gusting 11 18.9
2018-Apr-19 02:10 002 2 gusting 11 18.9
2018-Apr-19 02:05 357 4 gusting 17 18.9
2018-Apr-19 02:00 356 5 gusting 17 18.9
2018-Apr-19 01:55 016 4 gusting 15 18.9
2018-Apr-19 01:50 053 4 gusting 15 18.9
2018-Apr-19 01:45 030 4 gusting 15 18.9
2018-Apr-19 01:40 018 6 gusting 15 18.9
2018-Apr-19 01:35 003 5 gusting 14 18.9
2018-Apr-19 01:30 316 5 gusting 15 18.9
2018-Apr-19 01:25 328 5 gusting 17 18.9
2018-Apr-19 01:20 019 3 gusting 17 18.9
2018-Apr-19 01:15 029 5 gusting 13 18.9
2018-Apr-19 01:10 031 5 gusting 13 18.9
2018-Apr-19 01:05 017 3 gusting 13 18.9
2018-Apr-19 01:00 001 3 gusting 13 18.3
2018-Apr-19 00:55 021 4 gusting 13 18.9
2018-Apr-19 00:50 041 5 gusting 14 18.9
2018-Apr-19 00:45 041 6 gusting 14 18.9
2018-Apr-19 00:40 042 6 gusting 14 18.3
2018-Apr-19 00:35 050 4 gusting 14 18.3
2018-Apr-19 00:30 036 3 gusting 11 17.8
2018-Apr-19 00:25 032 2 gusting 9 17.2
2018-Apr-19 00:20 026 0 gusting 4 16.7
2018-Apr-19 00:15 122 15.6
2018-Apr-19 00:10 128 16.1
2018-Apr-19 00:05 043 16.1
2018-Apr-19 00:00 022 0 gusting 2 16.1
2018-Apr-18 23:55 009 0 gusting 3 16.1
2018-Apr-18 23:50 276 0 gusting 3 16.1
2018-Apr-18 23:45 240 0 gusting 3 16.1
2018-Apr-18 23:40 198 0 gusting 6 16.1
2018-Apr-18 23:35 183 0 gusting 6 15.6
2018-Apr-18 23:30 270 0 gusting 3 16.1
2018-Apr-18 23:25 331 0 gusting 3 16.1
2018-Apr-18 23:20 350 0 gusting 3 15.6
2018-Apr-18 23:15 018 16.1
2018-Apr-18 23:10 342 0 gusting 2 16.1
2018-Apr-18 23:05 065 0 gusting 2 16.1
2018-Apr-18 23:00 091 16.1
2018-Apr-18 22:55 074 16.1
2018-Apr-18 22:50 074 0 gusting 1 16.7
2018-Apr-18 22:45 074 0 gusting 3 16.7
2018-Apr-18 22:40 090 0 gusting 3 16.7
2018-Apr-18 22:35 113 0 gusting 3 16.7
2018-Apr-18 22:30 081 1 gusting 3 16.7
2018-Apr-18 22:25 121 1 gusting 3 16.7
2018-Apr-18 22:20 196 0 gusting 3 16.7
2018-Apr-18 22:15 162 16.7
2018-Apr-18 22:10 105 0 gusting 1 16.7
2018-Apr-18 22:05 055 17.2
2018-Apr-18 22:00 080 16.7
2018-Apr-18 21:55 049 17.2
2018-Apr-18 21:50 290 0 gusting 3 17.2
2018-Apr-18 21:45 246 0 gusting 3 17.2
2018-Apr-18 21:40 249 0 gusting 3 17.2
2018-Apr-18 21:35 262 0 gusting 3 16.7
2018-Apr-18 21:30 276 0 gusting 3 16.7
2018-Apr-18 21:25 288 0 gusting 5 16.7
2018-Apr-18 21:20 301 1 gusting 5 16.7
2018-Apr-18 21:15 315 0 gusting 3 16.7
2018-Apr-18 21:10 326 0 gusting 3 16.7
2018-Apr-18 21:05 348 0 gusting 3 16.7
2018-Apr-18 21:00 008 0 gusting 1 16.7
2018-Apr-18 20:55 014 16.7
2018-Apr-18 20:50 331 17.2
2018-Apr-18 20:45 336 17.2
2018-Apr-18 20:40 036 17.2
2018-Apr-18 20:35 014 0 gusting 2 17.2
2018-Apr-18 20:30 359 0 gusting 2 17.2
2018-Apr-18 20:20 086 17.2
2018-Apr-18 20:15 083 0 gusting 3 17.2
2018-Apr-18 20:10 083 1 gusting 3 17.2
2018-Apr-18 20:05 097 1 gusting 3 17.8
2018-Apr-18 20:00 126 0 gusting 3 17.8
2018-Apr-18 19:55 145 0 gusting 3 17.8
2018-Apr-18 19:50 167 0 gusting 3 17.8
2018-Apr-18 19:45 161 0 gusting 2 17.2
2018-Apr-18 19:40 320 17.8
2018-Apr-18 19:35 008 0 gusting 2 17.2
2018-Apr-18 19:30 035 17.8
2018-Apr-18 19:25 035 0 gusting 4 17.8
2018-Apr-18 19:20 032 0 gusting 4 17.8
2018-Apr-18 19:15 035 0 gusting 3 17.8
2018-Apr-18 19:10 047 0 gusting 3 17.8
2018-Apr-18 19:05 062 0 gusting 3 17.8
2018-Apr-18 19:00 080 18.3
2018-Apr-18 18:55 068 0 gusting 3 17.8
2018-Apr-18 18:50 075 1 gusting 6 18.3
2018-Apr-18 18:45 087 2 gusting 6 18.3
2018-Apr-18 18:40 088 1 gusting 6 18.9
2018-Apr-18 18:35 080 0 gusting 3 18.9
2018-Apr-18 18:30 090 0 gusting 3 19.4
2018-Apr-18 18:25 096 1 gusting 3 19.4
2018-Apr-18 18:15 078 0 gusting 3 19.4
2018-Apr-18 18:10 086 20.0
2018-Apr-18 18:05 214 20.0
2018-Apr-18 17:55 224 0 gusting 2 20.0
2018-Apr-18 17:50 248 0 gusting 2 20.0
2018-Apr-18 17:45 282 0 gusting 3 20.0
2018-Apr-18 17:40 277 0 gusting 6 20.0
2018-Apr-18 17:35 275 1 gusting 6 20.0
2018-Apr-18 17:30 295 1 gusting 6 20.6
2018-Apr-18 17:25 294 0 gusting 6 20.6
2018-Apr-18 17:20 259 20.6
2018-Apr-18 17:15 063 0 gusting 3 20.6
2018-Apr-18 17:10 348 1 gusting 9 20.6
2018-Apr-18 17:05 337 3 gusting 10 20.6
2018-Apr-18 17:00 344 3 gusting 10 20.6
2018-Apr-18 16:55 358 3 gusting 10 20.6
2018-Apr-18 16:50 344 3 gusting 9 21.1
2018-Apr-18 16:45 320 4 gusting 10 21.1
2018-Apr-18 16:40 332 4 gusting 10 21.1
2018-Apr-18 16:35 001 2 gusting 6 21.7
2018-Apr-18 16:30 351 2 gusting 9 21.7
2018-Apr-18 16:25 343 3 gusting 9 21.7
2018-Apr-18 16:20 003 2 gusting 6 22.2
2018-Apr-18 16:15 005 2 gusting 8 22.2
2018-Apr-18 16:10 355 2 gusting 8 22.2
2018-Apr-18 16:05 304 2 gusting 7 22.2
2018-Apr-18 16:00 305 2 gusting 7 22.2
2018-Apr-18 15:55 023 1 gusting 6 22.2
2018-Apr-18 15:50 080 1 gusting 6 22.2
2018-Apr-18 15:45 051 2 gusting 11 22.2
2018-Apr-18 15:40 003 4 gusting 12 22.8
2018-Apr-18 15:35 335 3 gusting 12 22.8
2018-Apr-18 15:30 318 2 gusting 12 22.2
2018-Apr-18 15:25 352 0 gusting 6 22.8
2018-Apr-18 15:20 026 1 gusting 6 22.8
2018-Apr-18 15:15 020 2 gusting 6 22.8
2018-Apr-18 15:10 335 1 gusting 6 22.8
2018-Apr-18 15:05 226 0 gusting 7 22.8
2018-Apr-18 15:00 195 1 gusting 7 22.8
2018-Apr-18 14:55 234 2 gusting 6 22.8
2018-Apr-18 14:50 296 2 gusting 6 22.8
2018-Apr-18 14:45 309 2 gusting 7 23.3
2018-Apr-18 14:40 299 2 gusting 9 23.3
2018-Apr-18 14:35 320 2 gusting 9 23.3
2018-Apr-18 14:30 314 3 gusting 9 23.3
2018-Apr-18 14:25 304 2 gusting 9 23.3
2018-Apr-18 14:20 315 1 gusting 6 23.3
2018-Apr-18 14:15 309 2 gusting 9 22.8
2018-Apr-18 14:10 304 3 gusting 11 23.3
2018-Apr-18 14:05 322 3 gusting 11 22.8
2018-Apr-18 14:00 350 2 gusting 7 23.3
2018-Apr-18 13:55 001 1 gusting 6 22.8
2018-Apr-18 13:50 026 2 gusting 13 22.2
2018-Apr-18 13:45 034 4 gusting 13 22.2
2018-Apr-18 13:40 029 5 gusting 11 22.2
2018-Apr-18 13:35 044 6 gusting 11 22.2
2018-Apr-18 13:30 050 6 gusting 11 22.2
2018-Apr-18 13:25 047 5 gusting 11 22.2
2018-Apr-18 13:20 045 5 gusting 10 22.2
2018-Apr-18 13:15 036 5 gusting 13 22.2
2018-Apr-18 13:10 044 5 gusting 13 22.2
2018-Apr-18 13:05 049 6 gusting 13 22.2
2018-Apr-18 13:00 040 6 gusting 13 22.2
2018-Apr-18 12:55 044 5 gusting 13 22.8
2018-Apr-18 12:50 076 5 gusting 13 22.8
2018-Apr-18 12:45 067 6 gusting 11 22.8
2018-Apr-18 12:40 056 6 gusting 13 22.8
2018-Apr-18 12:35 073 5 gusting 13 22.8
2018-Apr-18 12:30 067 6 gusting 13 22.8
2018-Apr-18 12:25 038 6 gusting 13 22.8
2018-Apr-18 12:20 030 4 gusting 12 22.8
2018-Apr-18 12:15 051 5 gusting 12 22.2
2018-Apr-18 12:10 055 6 gusting 13 22.8
2018-Apr-18 12:05 027 6 gusting 13 22.8
2018-Apr-18 12:00 020 6 gusting 13 22.8
2018-Apr-18 11:55 039 5 gusting 13 22.8
2018-Apr-18 11:50 053 5 gusting 13 22.8
2018-Apr-18 11:45 065 6 gusting 13 22.8
2018-Apr-18 11:40 056 6 gusting 13 22.8
2018-Apr-18 11:35 044 6 gusting 13 22.8
2018-Apr-18 11:30 031 6 gusting 13 23.3
2018-Apr-18 11:25 020 4 gusting 9 22.8
2018-Apr-18 11:20 019 4 gusting 11 22.8
2018-Apr-18 11:15 033 5 gusting 11 22.8
2018-Apr-18 11:10 029 5 gusting 11 22.8
2018-Apr-18 11:05 024 5 gusting 13 22.2
2018-Apr-18 11:00 030 5 gusting 13 22.2
2018-Apr-18 10:55 032 6 gusting 13 22.2
2018-Apr-18 10:50 037 6 gusting 13 22.2
2018-Apr-18 10:45 043 6 gusting 13 22.8
2018-Apr-18 10:40 082 6 gusting 14 22.2
2018-Apr-18 10:35 080 5 gusting 14 22.2
2018-Apr-18 10:30 045 6 gusting 16 22.2
2018-Apr-18 10:25 042 6 gusting 16 22.8
2018-Apr-18 10:20 057 6 gusting 14 22.2
2018-Apr-18 10:15 052 7 gusting 14 22.2
2018-Apr-18 10:10 045 6 gusting 14 22.2
2018-Apr-18 10:05 050 6 gusting 15 21.7
2018-Apr-18 10:00 054 6 gusting 15 22.2
2018-Apr-18 09:55 051 6 gusting 15 22.2
2018-Apr-18 09:50 049 6 gusting 13 22.2
2018-Apr-18 09:45 050 6 gusting 13 22.2
2018-Apr-18 09:40 041 6 gusting 13 21.7
2018-Apr-18 09:35 036 6 gusting 13 21.7
2018-Apr-18 09:30 028 6 gusting 13 21.7
2018-Apr-18 09:25 029 6 gusting 17 21.7
2018-Apr-18 09:20 035 6 gusting 17 21.7
2018-Apr-18 09:15 038 7 gusting 16 21.7
2018-Apr-18 09:10 051 7 gusting 16 21.7
2018-Apr-18 09:05 062 6 gusting 13 22.2
2018-Apr-18 09:00 071 6 gusting 13 22.2
2018-Apr-18 08:55 064 6 gusting 15 22.2
2018-Apr-18 08:50 056 8 gusting 17 21.7
2018-Apr-18 08:45 067 8 gusting 19 22.2
2018-Apr-18 08:40 068 7 gusting 19 22.2
2018-Apr-18 08:35 059 6 gusting 16 22.2
2018-Apr-18 08:30 068 6 gusting 16 22.2
2018-Apr-18 08:25 083 4 gusting 16 22.2
2018-Apr-18 08:20 090 2 gusting 8 22.2
2018-Apr-18 08:15 184 1 gusting 7 22.2
2018-Apr-18 08:10 213 1 gusting 6 22.2
2018-Apr-18 08:05 208 2 gusting 6 22.2
2018-Apr-18 08:00 184 1 gusting 6 22.2
2018-Apr-18 07:55 166 0 gusting 6 21.7
2018-Apr-18 07:50 182 0 gusting 5 21.7
2018-Apr-18 07:45 217 1 gusting 6 21.7
2018-Apr-18 07:40 264 1 gusting 6 21.7
2018-Apr-18 07:35 230 2 gusting 6 21.1
2018-Apr-18 07:30 212 1 gusting 6 21.1
2018-Apr-18 07:25 219 1 gusting 6 20.6
2018-Apr-18 07:20 222 1 gusting 5 20.6
2018-Apr-18 07:15 214 2 gusting 6 20.6
2018-Apr-18 07:10 225 1 gusting 6 20.6
2018-Apr-18 07:05 243 0 gusting 5 20.6
2018-Apr-18 07:00 250 0 gusting 4 20.6
2018-Apr-18 06:55 222 0 gusting 4 20.6
2018-Apr-18 06:50 212 0 gusting 4 20.0
2018-Apr-18 06:45 218 0 gusting 4 20.0
2018-Apr-18 06:40 222 20.0
2018-Apr-18 06:35 169 20.0
2018-Apr-18 06:30 112 18.9
2018-Apr-18 06:25 063 18.3
2018-Apr-18 06:20 044 18.3
2018-Apr-18 06:15 055 17.8
2018-Apr-18 06:10 068 0 gusting 2 17.8
2018-Apr-18 06:05 076 0 gusting 1 17.2
2018-Apr-18 06:00 079 0 gusting 2 17.2
2018-Apr-18 05:55 082 0 gusting 2 16.7
2018-Apr-18 05:50 075 0 gusting 2 16.7
2018-Apr-18 05:45 053 0 gusting 2 16.7
2018-Apr-18 05:40 064 1 gusting 3 16.7
2018-Apr-18 05:35 060 1 gusting 3 16.1
2018-Apr-18 05:30 048 1 gusting 3 16.1
2018-Apr-18 05:25 057 0 gusting 3 15.6
2018-Apr-18 05:20 060 0 gusting 3 15.6
2018-Apr-18 05:15 041 0 gusting 2 15.6
2018-Apr-18 05:10 032 0 gusting 3 15.0
2018-Apr-18 05:05 061 0 gusting 4 15.0
2018-Apr-18 05:00 081 0 gusting 4 15.0
2018-Apr-18 04:55 085 0 gusting 4 15.0
2018-Apr-18 04:50 036 15.0
2018-Apr-18 04:45 342 14.4
2018-Apr-18 04:40 037 14.4
2018-Apr-18 04:35 043 13.9
2018-Apr-18 04:30 025 13.9
2018-Apr-18 04:25 005 13.9
2018-Apr-18 04:20 004 13.3
2018-Apr-18 04:15 017 13.3
2018-Apr-18 04:10 030 0 gusting 1 13.3
2018-Apr-18 04:05 033 0 gusting 1 13.3
2018-Apr-18 04:00 030 0 gusting 1 13.3
2018-Apr-18 03:55 031 0 gusting 1 13.3
2018-Apr-18 03:50 036 0 gusting 2 13.3
2018-Apr-18 03:45 009 0 gusting 2 13.3
2018-Apr-18 03:40 348 0 gusting 1 13.3
2018-Apr-18 03:35 005 13.3
2018-Apr-18 03:30 350 13.3
2018-Apr-18 03:25 332 13.3
2018-Apr-18 03:20 334 13.3
2018-Apr-18 03:15 340 13.3
2018-Apr-18 03:10 342 13.3
2018-Apr-18 03:05 343 13.9
2018-Apr-18 03:00 348 13.3
2018-Apr-18 02:55 006 13.9
2018-Apr-18 02:50 358 13.3
2018-Apr-18 02:45 359 0 gusting 2 13.3
2018-Apr-18 02:40 022 13.3
2018-Apr-18 02:35 034 13.3
2018-Apr-18 02:30 050 13.3
2018-Apr-18 02:25 062 13.3
2018-Apr-18 02:20 042 13.3
2018-Apr-18 02:15 026 13.3
2018-Apr-18 02:10 005 0 gusting 1 13.3
2018-Apr-18 02:05 354 0 gusting 1 13.3
2018-Apr-18 02:00 350 0 gusting 2 13.3
2018-Apr-18 01:55 355 0 gusting 2 13.3
2018-Apr-18 01:50 018 13.3
2018-Apr-18 01:45 009 0 gusting 2 13.3
2018-Apr-18 01:40 348 0 gusting 2 13.3
2018-Apr-18 01:35 345 0 gusting 2 13.3
2018-Apr-18 01:30 357 13.9
2018-Apr-18 01:25 014 13.9
2018-Apr-18 01:20 019 0 gusting 2 13.9
2018-Apr-18 01:15 010 13.9
2018-Apr-18 01:10 001 13.9
2018-Apr-18 01:05 359 13.9
2018-Apr-18 01:00 359 13.9